Cosmos 1743 Rocket - Orbit

View from above orbital plane
View from above orbital plane
View from above satellite
View from above satellite

Ground track
Ground track

The orbit data is extracted from the following two-line orbital elements,

1 16720U 86034B   13168.59254807  .00000162  00000-0  17188-4 0  1592
2 16720 082.5537 162.4951 0019496 234.1977 265.0354 14.82421482462797
Epoch (UTC): 17 June 2013 14:13:16
Eccentricity: 0.0019496
inclination: 82.5537°
perigee height: 608 km
apogee height: 635 km
right ascension of ascending node: 162.4951°
argument of perigee: 234.1977°
revolutions per day: 14.82421482
mean anomaly at epoch: 265.0354°
orbit number at epoch: 46279

The dashed part of the orbit path shows where the satellite is in the earth's shadow,  

Developed and maintained by Chris Peat, Heavens-Above GmbH. Please read the updated FAQ before sending e-mail. Imprint. DLR